OSCAR 7 (AO-7) 1 07530U 74089B 26166.94772440 -.00000037 00000+0 56046-4 0 9996 2 07530 101.9900 180.1815 0012561 132.4491 296.7122 12.53698099360369 PHASE 3B (AO-10) 1 14129U 83058B 26166.42721388 .00000161 00000+0 00000+0 0 9993 2 14129 25.9108 219.8563 6011456 115.1838 317.1369 2.05868643295455 UOSAT 2 (UO-11) 1 14781U 84021B 26167.21457125 .00000980 00000+0 10535-3 0 9998 2 14781 97.8058 132.8001 0007545 175.7065 184.4219 14.90781223256983 LUSAT (LO-19) 1 20442U 90005G 26167.13543233 .00000094 00000+0 50454-4 0 9996 2 20442 98.8851 188.9120 0011065 204.3265 155.7398 14.34122929902249 EYESAT A (AO-27) 1 22825U 93061C 26167.16078916 .00000088 00000+0 50437-4 0 9996 2 22825 98.6881 234.5747 0009533 102.3705 257.8545 14.30942024706852 ITAMSAT (IO-26) 1 22826U 93061D 26167.00070186 .00000084 00000+0 48660-4 0 9992 2 22826 98.6828 234.3320 0010096 88.1549 272.0790 14.31368850707146 RADIO ROSTO (RS15) 1 23439U 94085A 26167.05171200 -.00000054 00000+0 -32993-3 0 9994 2 23439 64.8179 305.0526 0155919 4.0859 356.1299 11.27583453295779 JAS-2 (FO-29) 1 24278U 96046B 26166.83242779 .00000013 00000+0 45763-4 0 9993 2 24278 98.5240 15.8902 0350884 99.9379 264.1549 13.53274294472983 TECHSAT 1B (GO-32) 1 25397U 98043D 26167.22147388 .00000030 00000+0 33141-4 0 9995 2 25397 99.0067 159.9557 0001002 165.2007 194.9200 14.24428194451198 ISS (ZARYA) 1 25544U 98067A 26167.09292088 .00007536 00000+0 14355-3 0 9991 2 25544 51.6337 305.5091 0004806 191.3253 168.7628 15.49253146571586 PCSAT (NO-44) 1 26931U 01043C 26166.62271618 .00000084 00000+0 62366-4 0 9991 2 26931 67.0507 248.3182 0006076 264.5919 95.4489 14.31955610290220 SAUDISAT 1C (SO-50) 1 27607U 02058C 26167.07637918 .00000851 00000+0 11773-3 0 9995 2 27607 64.5510 132.4221 0075289 262.6786 96.5759 14.83044860264290 CUTE-1 (CO-55) 1 27844U 03031E 26166.98345551 .00000235 00000+0 12048-3 0 9990 2 27844 98.6736 175.5574 0009449 181.4906 178.6246 14.24335068191501 CUBESAT XI-IV (CO-57) 1 27848U 03031J 26166.97130938 .00000200 00000+0 10702-3 0 9991 2 27848 98.6765 175.2591 0008944 200.7616 159.3200 14.23620242191208 MOZHAETS 4 (RS22) 1 27939U 03042A 26167.20466457 .00000437 00000+0 75567-4 0 9992 2 27939 98.3461 351.5356 0009956 273.5563 206.8206 14.73464813215408 CUBESAT XI-V 1 28895U 05043F 26166.90778411 .00001212 00000+0 19838-3 0 9999 2 28895 98.2984 322.5028 0013554 204.9214 155.1340 14.72628612101567 CUTE-1.7+APD II (CO-65) 1 32785U 08021C 26167.12182992 .00003824 00000+0 24291-3 0 9999 2 32785 97.8271 148.5182 0009903 42.4099 317.7893 15.09443411985034 SEEDS II (CO-66) 1 32791U 08021J 26166.96044238 .00015094 00000+0 47997-3 0 9997 2 32791 97.7511 164.7995 0001226 8.5431 351.5831 15.32715926987109 YUBILEINY (RS30) 1 32953U 08025A 26167.13272579 .00000094 00000+0 60817-3 0 9992 2 32953 82.5038 356.0966 0018900 316.2604 43.6978 12.43179641819569 KKS-1 (KISEKI) 1 33499U 09002H 26167.04220639 .00001172 00000+0 15056-3 0 9997 2 33499 98.1190 89.4663 0006601 300.3744 59.6816 14.83121648936021 SWISSCUBE 1 35932U 09051B 26167.00556454 .00000837 00000+0 17487-3 0 9995 2 35932 98.4037 74.8732 0005883 207.1556 152.9338 14.62479724888984 BEESAT-1 1 35933U 09051C 26167.01438479 .00000698 00000+0 14987-3 0 9990 2 35933 98.3965 74.5202 0004159 221.4762 138.6123 14.61718847889015 ITUPSAT1 1 35935U 09051E 26166.73019578 .00000641 00000+0 14235-3 0 9999 2 35935 98.4050 73.4251 0006212 239.3695 120.6892 14.60438795888529 XIWANG-1 (HOPE-1) 1 36122U 09072B 26167.17989468 -.00000345 00000+0 -78637-3 0 9993 2 36122 100.4025 121.0283 0006849 234.2631 125.7846 13.16437620792872 O/OREOS (USA 219) 1 37224U 10062C 26167.19160789 .00001939 00000+0 18866-3 0 9993 2 37224 71.9714 82.5947 0012532 65.2237 295.0236 14.93741110116491 JUGNU 1 37839U 11058B 26167.11854749 .00000400 00000+0 69482-4 0 9992 2 37839 19.9617 314.9218 0018636 64.4642 109.1076 14.13776503758879 SRMSAT 1 37841U 11058D 26167.08586323 .00000355 00000+0 48745-4 0 9999 2 37841 19.9722 66.1331 0011815 191.4739 210.8496 14.11575350757668 STRAND-1 1 39090U 13009E 26167.08130302 .00000218 00000+0 87619-4 0 9998 2 39090 98.3921 347.3429 0007671 229.0747 130.9776 14.37162720696905 ZACUBE-1 (TSHEPISOSAT) 1 39417U 13066B 26167.14083162 .00002688 00000+0 21090-3 0 9995 2 39417 97.8082 129.4722 0040689 251.3313 108.3491 15.01184047680575 GOMX-1 1 39430U 13066Q 26167.16456519 .00001754 00000+0 26749-3 0 9991 2 39430 97.6476 7.6922 0130151 80.7820 280.8082 14.69457746669767 CUBEBUG-2 (LO-74) 1 39440U 13066AA 26167.12537931 .00003994 00000+0 37024-3 0 9992 2 39440 97.8908 116.0990 0058456 32.4816 327.9979 14.93754109676830 FUNCUBE-1 (AO-73) 1 39444U 13066AE 26167.19478169 .00005705 00000+0 35517-3 0 9997 2 39444 97.8274 138.6199 0035560 204.3953 155.5593 15.09480360679512 UWE-3 1 39446U 13066AG 26166.41095872 .00003615 00000+0 31229-3 0 9993 2 39446 97.8693 122.4726 0047855 327.0614 32.7628 14.97011844677317 UNISAT-6 1 40012U 14033C 26167.12477549 .00002287 00000+0 24893-3 0 9996 2 40012 97.7876 319.8552 0046284 72.7230 287.9044 14.88241963646007 DUCHIFAT-1 1 40021U 14033M 26166.42257015 .00087303 00000+0 90897-3 0 9991 2 40021 98.0462 225.3358 0003280 119.3803 240.7782 15.64281009655477 QB50P1 1 40025U 14033R 26167.02966330 .00006921 00000+0 34143-3 0 9998 2 40025 98.0960 178.0944 0007722 219.7283 140.3385 15.18246824652859 LILACSAT-2 1 40908U 15049K 26167.17578010 .00014344 00000+0 24489-3 0 9996 2 40908 97.4642 203.9789 0005451 249.7516 110.3150 15.51417312595596 FOX-1A (AO-85) 1 40967U 15058D 26166.74276637 .00002067 00000+0 19289-3 0 9994 2 40967 64.7762 283.4725 0130368 57.1508 304.2075 14.90963979113359 CAS-2T & KS-1Q 1 41847U 16066G 26167.20170863 .00001550 00000+0 22417-3 0 9991 2 41847 98.3821 242.9493 0342753 132.4604 230.6111 14.44691734504651 RADFXSAT (FOX-1B) 1 43017U 17073E 26167.14963034 .00006534 00000+0 28659-3 0 9995 2 43017 97.4703 34.3858 0149692 332.8831 26.4636 15.12705652465238 DIWATA-2B 1 43678U 18084H 26167.16955763 .00001978 00000+0 16225-3 0 9996 2 43678 98.1174 3.3336 0012420 173.3850 186.7539 15.00447535416064 ES'HAIL 2 1 43700U 18090A 26167.11962374 .00000144 00000+0 00000+0 0 9994 2 43700 0.0173 5.4784 0001594 118.9306 208.8329 1.00270088 27661 FOX-1CLIFF (AO-95) 1 43770U 18099N 26167.16008801 .00008871 00000+0 34028-3 0 9997 2 43770 97.4381 227.4098 0008085 1.8957 358.2311 15.26694491413062 ITASAT 1 43786U 18099AE 26167.09945744 .00005979 00000+0 28803-3 0 9992 2 43786 97.4027 218.6326 0012212 4.0961 356.0371 15.19046010412745 JY1SAT (JO-97) 1 43803U 18099AX 26167.11705125 .00014353 00000+0 44350-3 0 9993 2 43803 97.4130 229.9474 0004293 267.4350 92.6401 15.33625681413466 UWE-4 1 43880U 18111E 26167.05014456 .00026306 00000+0 53861-3 0 9994 2 43880 97.5856 95.3888 0005718 347.9262 12.1848 15.46065532410602 TIANYAN 01 1 44881U 19093C 26167.23699984 .00001304 00000+0 15307-3 0 9995 2 44881 97.7539 239.4920 0015129 89.7641 270.5308 14.86520914351272 RS-44 & BREEZE-KM R/B 1 44909U 19096E 26166.98883509 .00000012 00000+0 -34612-5 0 9996 2 44909 82.5218 340.5014 0218114 146.9585 214.5365 12.79748869302198 SALSAT 1 46495U 20068K 26166.96813813 .00006820 00000+0 23912-3 0 9999 2 46495 97.8844 169.9584 0008114 313.3675 46.6887 15.29785415315177 XW-3 (CAS-9) 1 50466U 21131B 26167.22158100 .00000403 00000+0 13817-3 0 9999 2 50466 98.4988 259.6162 0005382 99.2852 260.8946 14.41356734234971 GREENCUBE (IO-117) 1 53109U 22080E 26164.29338770 -.00000003 00000+0 00000+0 0 9990 2 53109 70.1444 299.5995 0008910 290.4576 69.5127 6.42583230 91811 UMKA 1 (RS40S) 1 57172U 23091G 26167.17277088 .00005607 00000+0 25677-3 0 9996 2 57172 97.5050 225.8738 0014220 120.8032 239.4605 15.20809213163853 CUBESX-HSE 3 (RS42S) 1 57178U 23091N 26167.19359132 .00011819 00000+0 39383-3 0 9996 2 57178 97.5094 232.7681 0012044 97.8713 262.3895 15.31195306164278 MONITOR-3 (RS58S) 1 57180U 23091Q 26167.15039485 .00008831 00000+0 32694-3 0 9999 2 57180 97.5085 230.5887 0013110 103.9461 256.3237 15.27825224164131 MONITOR-4 (RS57S) 1 57182U 23091S 26167.12951000 .00009145 00000+0 33759-3 0 9996 2 57182 97.5079 230.5388 0013109 104.4081 255.8614 15.27909840164134 MONITOR-2 (RS39S) 1 57184U 23091U 26167.19275146 .00004291 00000+0 20855-3 0 9995 2 57184 97.5073 225.4820 0012708 114.0890 246.1675 15.18902958163809 SVYATOBOR 1 (RS60S) 1 57187U 23091X 26167.14169507 .00007394 00000+0 28477-3 0 9991 2 57187 97.5091 230.9529 0010884 97.4739 262.7736 15.26600403164158 VIZARD-METEO (RS38S) 1 57189U 23091Z 26167.17043138 .00013743 00000+0 39377-3 0 9993 2 57189 97.5095 236.6348 0008326 80.8152 279.4033 15.35999895164532 POLYTECH-UNIVERSE 3 (R*) 1 57191U 23091AB 26167.15421486 .00004377 00000+0 21109-3 0 9997 2 57191 97.5048 224.9483 0016798 130.1004 230.1706 15.19105348163792 UTMN 2 (RS27S) 1 57203U 23091AP 26167.14640588 .00011422 00000+0 37127-3 0 9992 2 57203 97.5090 234.3528 0009311 86.9005 273.3302 15.32031789164389 KUZGTU 1 (RS47S) 1 57217U 23091AV 26167.11839935 .00010475 00000+0 36421-3 0 9993 2 57217 97.5066 231.5874 0012337 101.3117 258.9510 15.29842808164218 SONATE-2 1 59112U 24043Q 26166.66172283 .00034167 00000+0 44548-3 0 9995 2 59112 97.5531 316.9638 0007014 200.7175 159.3797 15.58618776127656 MESAT1 1 60209U 24125G 26167.14602183 .00048436 00000+0 53014-3 0 9998 2 60209 97.2286 24.6049 0009434 207.5377 152.5383 15.63102289109407 OOV-CUBE (TUBSAT-30) 1 60240U 24128F 26166.59161287 .00001776 00000+0 14516-3 0 9999 2 60240 61.9945 231.1374 0044790 133.3400 227.1438 15.02768887105877 COLIBRI-S (RS67S) 1 61746U 24199M 26167.15666031 .00018549 00000+0 35992-3 0 9996 2 61746 97.2992 41.0017 0006270 284.1951 75.8602 15.47690881137257 HORS 3 (RS81S) 1 61753U 24199U 26167.18853964 .00031737 00000+0 47508-3 0 9990 2 61753 97.2976 43.0095 0003734 284.0373 76.0466 15.54915208137403 HORS 4 (RS82S) 1 61754U 24199V 26167.15213370 .00041392 00000+0 51972-3 0 9997 2 61754 97.2924 44.1673 0003053 265.3095 94.7813 15.59602852137482 SIT-2086 1 61764U 24199AF 26167.16556935 .00029781 00000+0 47745-3 0 9997 2 61764 97.2933 43.4661 0004502 254.9783 105.0972 15.53027768134277 HYPERVIEW 1G (RS66S) 1 61772U 24199AP 26167.17352397 .00127022 00000+0 82451-3 0 9993 2 61772 97.2869 46.8423 0003516 224.3038 135.7947 15.75610981134513 ALTAIR (RS65S) 1 61779U 24199AW 26167.20055337 .00007127 00000+0 19873-3 0 9999 2 61779 97.3027 36.5582 0011204 315.3038 44.7303 15.37010429136968 ASRTU-1 (AO-123) 1 61781U 24199AY 26167.18759058 .00006291 00000+0 18334-3 0 9992 2 61781 97.2998 35.8677 0012396 318.2479 41.7818 15.35663814133772 SAMSAT-IONOSPHERE (RS7*) 1 61784U 24199BB 26167.15999632 .00037786 00000+0 51250-3 0 9993 2 61784 97.2945 43.0235 0005856 281.7658 78.2941 15.57549140137409 RTU MIREA 1 (RS51S) 1 61785U 24199BC 26167.18668133 .00047902 00000+0 56959-3 0 9998 2 61785 97.2933 43.8774 0005498 273.4107 86.6522 15.60993074134310 TEVEL2-4 1 63213U 25052D 26166.68245348 .00015491 00000+0 46436-3 0 9995 2 63213 97.3913 63.0717 0004849 106.3363 253.8414 15.34567843 69884 TEVEL2-5 1 63214U 25052E 26166.96364296 .00014759 00000+0 44491-3 0 9996 2 63214 97.3907 63.3018 0004761 106.7826 253.3939 15.34401934 69926 TEVEL2-6 1 63215U 25052F 26167.17159244 .00015102 00000+0 45558-3 0 9994 2 63215 97.3912 63.4942 0004675 107.3196 252.8558 15.34373601 69954 TEVEL2-1 1 63217U 25052H 26166.67835869 .00014861 00000+0 45615-3 0 9999 2 63217 97.3883 62.6268 0004711 116.5645 243.6081 15.33827137 69863 TEVEL2-3 1 63218U 25052J 26167.19494450 .00014646 00000+0 44863-3 0 9990 2 63218 97.3885 63.1651 0004682 115.6009 244.5717 15.33896026 69947 TEVEL2-2 1 63219U 25052K 26166.67868108 .00015064 00000+0 46221-3 0 9993 2 63219 97.3885 62.6296 0004687 116.9580 243.2142 15.33835792 69862 TEVEL2-9 1 63237U 25052AD 26167.17673258 .00013111 00000+0 42794-3 0 9991 2 63237 97.3944 62.5048 0007708 133.6169 226.5714 15.31871901 69878 TEVEL2-7 1 63238U 25052AE 26167.08677737 .00013005 00000+0 42844-3 0 9996 2 63238 97.3948 62.3318 0007779 134.1699 226.0183 15.31574840 69858 TEVEL2-8 1 63239U 25052AF 26166.96434749 .00012397 00000+0 40879-3 0 9996 2 63239 97.3947 62.1866 0007791 135.1271 225.0601 15.31555084 69836 INNOSAT 16 (RS92S7) 1 64878U 25155C 26167.14928707 .00004900 00000+0 19639-3 0 9994 2 64878 97.4565 134.2803 0010430 178.9939 181.1322 15.25448086 80511 GEOSCAN 6 (RS92S6) 1 64879U 25155D 26167.20063770 .00008396 00000+0 29024-3 0 9994 2 64879 97.4557 135.7487 0008234 165.4636 194.6843 15.30135692 80611 GEOSCAN 1 (RS92S1) 1 64880U 25155E 26167.13809889 .00009012 00000+0 30571-3 0 9992 2 64880 97.4553 135.8329 0008167 165.4215 194.7263 15.30728895 80613 239ALFEROV (RS61S) 1 64881U 25155F 26167.17451749 .00011863 00000+0 37513-3 0 9995 2 64881 97.4553 136.4276 0007903 162.1878 197.9643 15.32916747 80656 GEOSCAN 2 (RS92S2) 1 64890U 25155Q 26167.19732850 .00009247 00000+0 31100-3 0 9991 2 64890 97.4552 136.0445 0008019 152.3418 207.8250 15.31001109 80638 GEOSCAN 5 (RS92S5) 1 64891U 25155R 26167.16375177 .00011935 00000+0 37374-3 0 9990 2 64891 97.4546 136.5539 0006603 165.7344 194.4086 15.33234252 80664 GEOSCAN 4 (RS92S4) 1 64892U 25155S 26167.14804686 .00012106 00000+0 37723-3 0 9990 2 64892 97.4549 136.5861 0006682 165.5671 194.5764 15.33387857 80668 GEOSCAN 3 (RS92S3) 1 64893U 25155T 26167.15014198 .00014670 00000+0 42884-3 0 9995 2 64893 97.4538 137.0149 0006609 163.6271 196.5187 15.35365827 80695 INNOSAT 3 (RS92S0) 1 64894U 25155U 26167.14590944 .00032900 00000+0 72704-3 0 9993 2 64894 97.4487 138.6169 0006369 154.2210 205.9356 15.43761671 80802 KNACKSAT-2 1 67683U 98067XZ 26167.06925752 .00039932 00000+0 48947-3 0 9998 2 67683 51.6312 300.0997 0009232 210.2496 149.7965 15.59891318 20102